Welcome to Northern Hawkes Bay. New Zealand.
PWS Header
      nz Flag



Hit Counter


W3C Valid W3C Valid logo


    Wairoa

Select any of the Stations below to visit their websites.










Historic Data from Weather Underground
Select the location of interest below. Wairoa is the default. Please have patience, this Data is slow to load in.
Northern Hawkes Bay Historical Data
Daily Summary for June 24, 2017 Units:  English    Metric   Both
« Previous Day
Next Day »
Daily Weekly Monthly Yearly Custom
  High: Low: Average:
Temperature: 56.3 °F 51.4 °F 53.4 °F
Dew Point: 55.9 °F 51.3 °F 52.7 °F
Humidity: 99% 97% 98%
Wind Speed: 4.5mph 0mph 0.8mph
Wind Gust: 6mph - -
Wind- - SSW
Pressure: 29.5 in 29.3 in -
Precipitation: 0.74 in    
Historical Graphs
 
 
Tabular Data for June 24, 2017
Time Temperature Dew Point Pressure Wind Wind Speed Wind Gust Humidity Rainfall Rate (Hourly) solar
00:03 52.7 °F 52.2 °F 29.4 in NNE 0.7 mph 1.6 mph 98% 0 in 0 W/m2
00:08 52.7 °F 52.2 °F 29.4 in NNE 1.6 mph 2.2 mph 98% 0 in 0 W/m2
00:13 52.7 °F 52.2 °F 29.4 in NNE 0.7 mph 2.2 mph 98% 0 in 0 W/m2
00:18 52.7 °F 52.2 °F 29.4 in NNE 0.7 mph 2.2 mph 98% 0 in 0 W/m2
00:23 52.5 °F 52 °F 29.4 in NE 1.6 mph 2.2 mph 98% 0 in 0 W/m2
00:28 52.5 °F 52 °F 29.4 in NNE 0.7 mph 2.2 mph 98% 0 in 0 W/m2
00:33 52.5 °F 52 °F 29.4 in North 1.6 mph 3.1 mph 98% 0 in 0 W/m2
00:38 52.5 °F 52 °F 29.4 in Calm   3.1 mph 98% 0 in 0 W/m2
00:43 52.5 °F 52 °F 29.4 in Calm   0.7 mph 98% 0 in 0 W/m2
00:48 52.5 °F 52 °F 29.4 in Calm     98% 0 in 0 W/m2
00:53 52.5 °F 52 °F 29.4 in Calm     98% 0 in 0 W/m2
00:58 52.5 °F 52 °F 29.4 in Calm     98% 0 in 0 W/m2
01:03 52.5 °F 52 °F 29.4 in Calm     98% 0 in 0 W/m2
01:08 52.5 °F 52 °F 29.4 in Calm   0.7 mph 98% 0 in 0 W/m2
01:13 52.5 °F 52 °F 29.4 in Calm   0.7 mph 98% 0 in 0 W/m2
01:18 52.5 °F 52 °F 29.4 in West 1.6 mph 3.1 mph 98% 0 in 0 W/m2
01:23 52.5 °F 52 °F 29.4 in WNW 1.6 mph 3.1 mph 98% 0 in 0 W/m2
01:28 52.5 °F 52 °F 29.4 in NW 1.6 mph 3.8 mph 98% 0 in 0 W/m2
01:33 52.5 °F 52 °F 29.4 in NNW 0.7 mph 3.8 mph 98% 0 in 0 W/m2
01:38 52.3 °F 51.8 °F 29.4 in North 0.7 mph 3.1 mph 98% 0 in 0 W/m2
01:43 52.3 °F 51.8 °F 29.4 in Calm   2.2 mph 98% 0 in 0 W/m2
01:48 52.3 °F 51.8 °F 29.4 in North 1.6 mph 2.2 mph 98% 0 in 0 W/m2
01:53 52.3 °F 51.8 °F 29.4 in North 0.7 mph 3.1 mph 98% 0 in 0 W/m2
01:58 52.3 °F 51.8 °F 29.4 in NNW 0.7 mph 3.1 mph 98% 0 in 0 W/m2
02:03 52.3 °F 51.8 °F 29.4 in NNW 0.7 mph 3.1 mph 98% 0 in 0 W/m2
02:08 52.2 °F 51.6 °F 29.4 in Calm   3.1 mph 98% 0 in 0 W/m2
02:14 52.2 °F 51.6 °F 29.4 in North 0.7 mph 2.2 mph 98% 0 in 0 W/m2
02:19 52.2 °F 51.6 °F 29.4 in NNE 1.6 mph 2.2 mph 98% 0 in 0 W/m2
02:24 52.2 °F 51.6 °F 29.4 in NNE 0.7 mph 2.2 mph 98% 0 in 0 W/m2
02:29 52.2 °F 51.6 °F 29.4 in North 0.7 mph 2.2 mph 98% 0 in 0 W/m2
02:34 52.2 °F 51.6 °F 29.4 in Calm   1.6 mph 98% 0 in 0 W/m2
02:39 52.2 °F 51.6 °F 29.4 in Calm   1.6 mph 98% 0 in 0 W/m2
02:44 52.2 °F 51.6 °F 29.4 in NNE 1.6 mph 2.2 mph 98% 0 in 0 W/m2
02:49 52.2 °F 51.6 °F 29.4 in NNE 0.7 mph 3.1 mph 98% 0 in 0 W/m2
02:54 52.2 °F 51.6 °F 29.4 in NNE 0.7 mph 3.1 mph 98% 0 in 0 W/m2
02:59 52.2 °F 51.6 °F 29.4 in NNE 0.7 mph 2.2 mph 98% 0 in 0 W/m2
03:04 52 °F 51.4 °F 29.4 in NNW 1.6 mph 2.2 mph 98% 0 in 0 W/m2
03:09 52.2 °F 51.6 °F 29.4 in NNW 1.6 mph 2.2 mph 98% 0 in 0 W/m2
03:14 52 °F 51.4 °F 29.4 in NNE 0.7 mph 3.1 mph 98% 0 in 0 W/m2
03:19 52 °F 51.4 °F 29.4 in NE 0.7 mph 3.1 mph 98% 0 in 0 W/m2
03:25 52 °F 51.4 °F 29.4 in Calm   1.6 mph 98% 0 in 0 W/m2
03:30 52 °F 51.4 °F 29.4 in Calm   1.6 mph 98% 0 in 0 W/m2
03:35 51.8 °F 51.3 °F 29.4 in Calm   0.7 mph 98% 0 in 0 W/m2
03:40 52 °F 51.4 °F 29.4 in Calm   1.6 mph 98% 0 in 0 W/m2
03:45 52 °F 51.4 °F 29.4 in NE 0.7 mph 1.6 mph 98% 0 in 0 W/m2
03:50 52.2 °F 51.6 °F 29.4 in NNE 0.7 mph 1.6 mph 98% 0 in 0 W/m2
03:55 52.2 °F 51.6 °F 29.4 in NNW 1.6 mph 3.1 mph 98% 0 in 0 W/m2
04:00 52.2 °F 51.6 °F 29.3 in NW 1.6 mph 3.1 mph 98% 0 in 0 W/m2
04:05 52 °F 51.4 °F 29.4 in NW 1.6 mph 3.1 mph 98% 0 in 0 W/m2
04:10 52 °F 51.4 °F 29.3 in NW 1.6 mph 3.8 mph 98% 0 in 0 W/m2
04:15 52.2 °F 51.6 °F 29.4 in NNW 1.6 mph 3.8 mph 98% 0 in 0 W/m2
04:20 52 °F 51.4 °F 29.3 in NNW 0.7 mph 3.1 mph 98% 0 in 0 W/m2
04:25 52 °F 51.4 °F 29.3 in NNW 0.7 mph 3.1 mph 98% 0 in 0 W/m2
04:30 52 °F 51.4 °F 29.3 in Calm   1.6 mph 98% 0 in 0 W/m2
04:35 51.8 °F 51.3 °F 29.3 in Calm   1.6 mph 98% 0 in 0 W/m2
04:40 51.8 °F 51.3 °F 29.3 in Calm     98% 0 in 0 W/m2
04:50 51.8 °F 51.3 °F 29.3 in Calm   0.7 mph 98% 0 in 0 W/m2
04:55 52 °F 51.4 °F 29.3 in Calm     98% 0 in 0 W/m2
05:00 52 °F 51.4 °F 29.3 in Calm     98% 0 in 0 W/m2
05:05 52 °F 51.4 °F 29.3 in Calm     98% 0 in 0 W/m2
05:07 52 °F 51.4 °F 29.3 in North 0.7 mph 1.6 mph 98% 0 in 0 W/m2
05:12 51.8 °F 51.3 °F 29.3 in North 0.7 mph 1.6 mph 98% 0 in 0 W/m2
05:17 52 °F 51.4 °F 29.3 in North 0.7 mph 2.2 mph 98% 0 in 0 W/m2
05:22 52 °F 51.4 °F 29.3 in NNW 1.6 mph 3.1 mph 98% 0 in 0 W/m2
05:23 52.2 °F 51.6 °F 29.3 in NNW 1.6 mph 3.1 mph 98% 0 in 0 W/m2
05:28 52.2 °F 51.6 °F 29.3 in NNW 2.2 mph 3.1 mph 98% 0 in 0 W/m2
05:33 52.2 °F 51.6 °F 29.3 in North 1.6 mph 2.2 mph 98% 0 in 0 W/m2
05:38 52.2 °F 51.6 °F 29.3 in Calm   2.2 mph 98% 0 in 0 W/m2
05:43 52.2 °F 51.6 °F 29.3 in Calm   2.2 mph 98% 0 in 0 W/m2
05:49 52.2 °F 51.6 °F 29.3 in Calm   0.7 mph 98% 0 in 0 W/m2
05:54 52 °F 51.4 °F 29.3 in Calm   0.7 mph 98% 0 in 0 W/m2
05:59 52 °F 51.4 °F 29.3 in Calm   1.6 mph 98% 0 in 0 W/m2
06:04 52 °F 51.4 °F 29.3 in NNE 2.2 mph 3.8 mph 98% 0 in 0 W/m2
06:09 52 °F 51.4 °F 29.3 in NNW 1.6 mph 3.8 mph 98% 0 in 0 W/m2
06:14 52 °F 51.4 °F 29.3 in NNW 0.7 mph 3.8 mph 98% 0 in 0 W/m2
06:19 52 °F 51.4 °F 29.3 in North 1.6 mph 3.1 mph 98% 0 in 0 W/m2
06:24 52 °F 51.4 °F 29.3 in North 1.6 mph 3.1 mph 98% 0 in 0 W/m2
06:29 52 °F 51.4 °F 29.3 in North 1.6 mph 3.8 mph 98% 0 in 0 W/m2
06:34 52 °F 51.4 °F 29.3 in North 0.7 mph 3.8 mph 98% 0 in 0 W/m2
06:39 51.8 °F 51.3 °F 29.3 in Calm   2.2 mph 98% 0 in 0 W/m2
06:44 51.8 °F 51.3 °F 29.3 in NNE 0.7 mph 2.2 mph 98% 0 in 0 W/m2
06:49 51.8 °F 51.3 °F 29.3 in Calm   2.2 mph 98% 0 in 0 W/m2
06:54 51.8 °F 51.3 °F 29.3 in Calm   2.2 mph 98% 0 in 0 W/m2
06:59 51.8 °F 51.3 °F 29.3 in North 0.7 mph 1.6 mph 98% 0 in 0 W/m2
07:04 51.8 °F 51.3 °F 29.3 in North 1.6 mph 3.1 mph 98% 0 in 0 W/m2
07:09 51.8 °F 51.3 °F 29.3 in NNW 1.6 mph 3.1 mph 98% 0 in 0 W/m2
07:14 51.8 °F 51.3 °F 29.3 in NNW 1.6 mph 3.1 mph 98% 0 in 0 W/m2
07:19 52 °F 51.4 °F 29.3 in North 0.7 mph 2.2 mph 98% 0 in 0 W/m2
07:24 52 °F 51.4 °F 29.3 in Calm   2.2 mph 98% 0 in 0 W/m2
07:28 52 °F 51.4 °F 29.3 in NE 0.7 mph 1.6 mph 98% 0 in 0 W/m2
07:33 52 °F 51.4 °F 29.3 in NW 1.6 mph 2.2 mph 98% 0 in 0 W/m2
07:38 52 °F 51.4 °F 29.3 in WNW 0.7 mph 2.2 mph 98% 0.01 in 0 W/m2
07:43 52 °F 51.4 °F 29.3 in Calm   2.2 mph 98% 0.01 in 0 W/m2
07:48 52 °F 51.4 °F 29.3 in Calm   1.6 mph 98% 0.01 in 0 W/m2
07:53 52 °F 51.4 °F 29.3 in Calm   1.6 mph 98% 0.01 in 0 W/m2
07:58 52 °F 51.4 °F 29.3 in Calm   1.6 mph 98% 0.02 in 0 W/m2
08:03 52 °F 51.4 °F 29.3 in Calm   0.7 mph 98% 0.02 in 0 W/m2
08:08 52 °F 51.4 °F 29.4 in Calm     98% 0.02 in 1 W/m2
08:13 52 °F 51.4 °F 29.4 in Calm     98% 0.02 in 1 W/m2
08:18 52 °F 51.4 °F 29.3 in Calm     98% 0.04 in 2 W/m2
08:23 52.2 °F 51.6 °F 29.4 in Calm     98% 0.04 in 3 W/m2
08:28 52.2 °F 51.6 °F 29.4 in Calm     98% 0.04 in 4 W/m2
08:33 52.2 °F 51.6 °F 29.4 in Calm     98% 0.04 in 4 W/m2
08:38 52.3 °F 51.8 °F 29.4 in Calm   0.7 mph 98% 0.04 in 5 W/m2
08:43 52.3 °F 51.8 °F 29.4 in Calm   0.7 mph 98% 0.04 in 7 W/m2
08:48 52.3 °F 51.8 °F 29.4 in Calm   0.7 mph 98% 0.04 in 7 W/m2
08:53 52.5 °F 52 °F 29.4 in Calm   0.7 mph 98% 0.05 in 7 W/m2
08:58 52.5 °F 52 °F 29.4 in Calm   0.7 mph 98% 0.04 in 8 W/m2
09:03 52.7 °F 52.2 °F 29.4 in Calm   0.7 mph 98% 0.04 in 8 W/m2
09:05 52.9 °F 52.3 °F 29.4 in Calm     98% 0.04 in 8 W/m2
09:10 52.9 °F 52.3 °F 29.4 in Calm     98% 0.04 in 9 W/m2
09:15 52.9 °F 52.3 °F 29.4 in Calm     98% 0.04 in 11 W/m2
09:20 52.9 °F 52.3 °F 29.4 in Calm     98% 0.04 in 13 W/m2
09:25 53.1 °F 52.5 °F 29.4 in Calm     98% 0.04 in 16 W/m2
09:30 53.1 °F 52.5 °F 29.4 in Calm   1.6 mph 98% 0.04 in 16 W/m2
09:35 53.1 °F 52.5 °F 29.4 in Calm   1.6 mph 98% 0.05 in 18 W/m2
09:40 53.1 °F 52.5 °F 29.4 in Calm   1.6 mph 98% 0.05 in 18 W/m2
09:45 53.1 °F 52.5 °F 29.4 in NW 1.6 mph 2.2 mph 98% 0.06 in 17 W/m2
09:50 53.1 °F 52.5 °F 29.4 in NW 1.6 mph 2.2 mph 98% 0.08 in 16 W/m2
09:55 53.1 °F 52.5 °F 29.4 in NNW 0.7 mph 3.1 mph 98% 0.08 in 14 W/m2
10:00 53.1 °F 52.5 °F 29.4 in NNW 1.6 mph 3.1 mph 98% 0.09 in 12 W/m2
10:05 53.1 °F 52.5 °F 29.4 in NNW 0.7 mph 3.1 mph 98% 0.11 in 11 W/m2
10:10 52.9 °F 52.3 °F 29.4 in North 0.7 mph 3.1 mph 98% 0.15 in 8 W/m2
10:15 53.1 °F 52.5 °F 29.4 in Calm   2.2 mph 98% 0.18 in 7 W/m2
10:20 53.1 °F 52.5 °F 29.4 in Calm   3.1 mph 98% 0.19 in 9 W/m2
10:25 53.1 °F 52.5 °F 29.4 in SSE 2.2 mph 3.1 mph 98% 0.2 in 8 W/m2
10:30 53.2 °F 52.7 °F 29.4 in Calm   3.8 mph 98% 0.22 in 6 W/m2
10:35 53.2 °F 52.7 °F 29.4 in NNW 3.1 mph 3.8 mph 98% 0.24 in 4 W/m2
10:40 53.2 °F 52.7 °F 29.4 in NE 1.6 mph 3.8 mph 98% 0.25 in 5 W/m2
10:45 53.4 °F 52.9 °F 29.4 in ENE 0.7 mph 3.8 mph 98% 0.25 in 5 W/m2
10:50 53.8 °F 53.1 °F 29.4 in SE 0.7 mph 3.8 mph 97% 0.25 in 5 W/m2
10:55 54 °F 53.1 °F 29.4 in SSW 0.7 mph 3.1 mph 97% 0.25 in 7 W/m2
11:00 54.1 °F 53.2 °F 29.4 in Calm   3.1 mph 97% 0.25 in 7 W/m2
11:05 54.1 °F 53.2 °F 29.4 in Calm   1.6 mph 97% 0.26 in 9 W/m2
11:10 54.1 °F 53.2 °F 29.4 in NNW 0.7 mph 1.6 mph 97% 0.25 in 9 W/m2
11:15 54.1 °F 53.2 °F 29.4 in Calm   1.6 mph 97% 0.24 in 12 W/m2
11:20 54.1 °F 53.2 °F 29.4 in Calm   1.6 mph 97% 0.25 in 13 W/m2
11:25 54.1 °F 53.2 °F 29.4 in SW 0.7 mph 1.6 mph 97% 0.25 in 16 W/m2
11:30 54.1 °F 53.2 °F 29.4 in South 0.7 mph 1.6 mph 97% 0.25 in 18 W/m2
11:35 54.3 °F 53.4 °F 29.4 in Calm   1.6 mph 97% 0.24 in 20 W/m2
11:40 54.3 °F 53.4 °F 29.4 in South 0.7 mph 1.6 mph 97% 0.22 in 20 W/m2
11:45 54.5 °F 53.8 °F 29.3 in South 1.6 mph 3.8 mph 97% 0.21 in 22 W/m2
11:50 54.7 °F 54 °F 29.3 in SSW 3.1 mph 5.4 mph 97% 0.2 in 22 W/m2
11:55 54.7 °F 54 °F 29.3 in WSW 2.2 mph 6 mph 97% 0.19 in 24 W/m2
12:00 54.9 °F 54 °F 29.3 in WSW 3.8 mph 6 mph 97% 0.19 in 25 W/m2
12:05 54.9 °F 54 °F 29.3 in WSW 2.2 mph 6 mph 97% 0.17 in 26 W/m2
12:10 55 °F 54.1 °F 29.3 in WSW 3.1 mph 6 mph 97% 0.14 in 26 W/m2
12:15 55 °F 54.1 °F 29.3 in Calm   4.5 mph 97% 0.12 in 32 W/m2
12:20 55 °F 54.1 °F 29.3 in Calm   4.5 mph 97% 0.09 in 36 W/m2
12:25 55.2 °F 54.3 °F 29.3 in WSW 1.6 mph 3.1 mph 97% 0.07 in 37 W/m2
12:30 55.2 °F 54.3 °F 29.3 in WSW 0.7 mph 3.1 mph 97% 0.06 in 43 W/m2
12:35 55.2 °F 54.3 °F 29.3 in West 1.6 mph 3.1 mph 97% 0.05 in 42 W/m2
12:40 55 °F 54.1 °F 29.3 in Calm   2.2 mph 97% 0.04 in 43 W/m2
12:45 55 °F 54.1 °F 29.3 in North 0.7 mph 2.2 mph 97% 0.02 in 47 W/m2
12:50 55 °F 54.1 °F 29.3 in North 2.2 mph 4.5 mph 97% 0.02 in 45 W/m2
12:55 54.9 °F 54 °F 29.3 in NNE 0.7 mph 5.4 mph 97% 0.01 in 43 W/m2
13:00 54.9 °F 54 °F 29.3 in NNE 2.2 mph 5.4 mph 97% 0.01 in 41 W/m2
13:05 55 °F 54.1 °F 29.3 in NNE 2.2 mph 5.4 mph 97% 0 in 37 W/m2
13:10 55.2 °F 54.3 °F 29.3 in NE 3.1 mph 6 mph 97% 0 in 29 W/m2
13:15 55.2 °F 54.3 °F 29.3 in NE 2.2 mph 6 mph 97% 0 in 26 W/m2
13:20 55.4 °F 55 °F 29.3 in NE 0.7 mph 6 mph 99% 0 in 26 W/m2
13:25 55.4 °F 55 °F 29.3 in NNE 0.7 mph 3.1 mph 99% 0 in 46 W/m2
13:30 55.6 °F 55.2 °F 29.3 in Calm   2.2 mph 99% 0 in 52 W/m2
13:35 55.8 °F 55.6 °F 29.3 in Calm   2.2 mph 99% 0 in 55 W/m2
13:40 55.8 °F 55.6 °F 29.3 in Calm   1.6 mph 99% 0 in 59 W/m2
13:45 55.9 °F 55.8 °F 29.3 in Calm   1.6 mph 99% 0 in 60 W/m2
13:50 56.1 °F 55.9 °F 29.3 in Calm   1.6 mph 99% 0 in 58 W/m2
13:55 56.3 °F 55.9 °F 29.3 in South 1.6 mph 2.2 mph 99% 0 in 52 W/m2
14:00 55.9 °F 55.8 °F 29.3 in SSE 0.7 mph 2.2 mph 99% 0 in 53 W/m2
14:05 55.9 °F 55.8 °F 29.3 in SSE 0.7 mph 2.2 mph 99% 0 in 43 W/m2
14:10 55.8 °F 55.6 °F 29.3 in SSE 2.2 mph 4.5 mph 99% 0 in 43 W/m2
14:15 55.6 °F 55.2 °F 29.3 in SSW 3.8 mph 5.4 mph 99% 0 in 44 W/m2
14:20 55.4 °F 55 °F 29.3 in SSW 2.2 mph 5.4 mph 99% 0 in 44 W/m2
14:25 55.4 °F 55 °F 29.3 in South 2.2 mph 5.4 mph 99% 0 in 39 W/m2
14:30 55.6 °F 55.2 °F 29.3 in SSW 0.7 mph 4.5 mph 99% 0 in 38 W/m2
14:35 55.6 °F 55.2 °F 29.3 in SSW 1.6 mph 3.8 mph 99% 0 in 47 W/m2
14:40 55.8 °F 55.6 °F 29.3 in SSW 2.2 mph 3.8 mph 99% 0 in 48 W/m2
14:45 55.8 °F 55.6 °F 29.3 in SSW 4.5 mph 6 mph 99% 0 in 36 W/m2
14:50 55.6 °F 55.2 °F 29.3 in SW 2.2 mph 6 mph 99% 0 in 23 W/m2
14:55 55.6 °F 55.2 °F 29.3 in SW 2.2 mph 6 mph 99% 0.01 in 17 W/m2
15:00 55.4 °F 55 °F 29.3 in SW 2.2 mph 6 mph 99% 0.02 in 10 W/m2
15:05 55.4 °F 55 °F 29.3 in SW 1.6 mph 4.5 mph 99% 0.05 in 13 W/m2
15:10 55.4 °F 55 °F 29.3 in SW 0.7 mph 4.5 mph 99% 0.06 in 18 W/m2
15:15 55.4 °F 55 °F 29.3 in SSW 0.7 mph 3.8 mph 99% 0.07 in 18 W/m2
15:20 55.4 °F 55 °F 29.3 in Calm   3.8 mph 99% 0.08 in 16 W/m2
15:25 55.4 °F 55 °F 29.3 in Calm   1.6 mph 99% 0.08 in 20 W/m2
15:30 55.4 °F 55 °F 29.3 in Calm   1.6 mph 99% 0.08 in 18 W/m2
15:35 55.4 °F 55 °F 29.3 in SE 1.6 mph 2.2 mph 99% 0.09 in 13 W/m2
15:40 55.2 °F 54.3 °F 29.3 in ESE 0.7 mph 3.1 mph 97% 0.11 in 13 W/m2
15:46 55 °F 54.1 °F 29.3 in East 0.7 mph 3.1 mph 97% 0.11 in 10 W/m2
15:51 55 °F 54.1 °F 29.3 in NE 0.7 mph 1.6 mph 97% 0.09 in 9 W/m2
15:56 55.2 °F 54.3 °F 29.3 in NE 0.7 mph 2.2 mph 97% 0.09 in 7 W/m2
16:01 55.2 °F 54.3 °F 29.3 in ENE 1.6 mph 3.1 mph 97% 0.08 in 6 W/m2
16:06 55.2 °F 54.3 °F 29.3 in East 0.7 mph 3.1 mph 97% 0.05 in 8 W/m2
16:11 55.2 °F 54.3 °F 29.3 in Calm   3.1 mph 97% 0.05 in 7 W/m2
16:16 55.2 °F 54.3 °F 29.4 in Calm   1.6 mph 97% 0.04 in 5 W/m2
16:21 55.2 °F 54.3 °F 29.4 in North 0.7 mph 1.6 mph 97% 0.02 in 2 W/m2
16:26 55.2 °F 54.3 °F 29.4 in Calm   1.6 mph 97% 0.02 in 0 W/m2
16:31 55.2 °F 54.3 °F 29.4 in NW 0.7 mph 1.6 mph 97% 0.02 in 0 W/m2
16:36 55.2 °F 54.3 °F 29.4 in NW 0.7 mph 1.6 mph 97% 0.01 in 0 W/m2
16:42 55.2 °F 54.3 °F 29.4 in Calm   1.6 mph 97% 0 in 0 W/m2
16:47 55.2 °F 54.3 °F 29.4 in Calm   1.6 mph 97% 0 in 0 W/m2
16:52 55 °F 54.1 °F 29.4 in SW 0.7 mph 1.6 mph 97% 0.01 in 0 W/m2
16:57 55 °F 54.1 °F 29.4 in North 0.7 mph 2.2 mph 97% 0.02 in 0 W/m2
17:02 55 °F 54.1 °F 29.4 in North 0.7 mph 2.2 mph 97% 0.02 in 0 W/m2
17:20 54.9 °F 54 °F 29.4 in Calm   1.6 mph 97% 0.02 in 0 W/m2
17:25 54.9 °F 54 °F 29.4 in Calm   1.6 mph 97% 0.02 in 0 W/m2
17:30 54.7 °F 54 °F 29.4 in North 0.7 mph 1.6 mph 97% 0.02 in 0 W/m2
17:35 54.7 °F 54 °F 29.4 in North 1.6 mph 2.2 mph 97% 0.02 in 0 W/m2
17:40 54.7 °F 54 °F 29.4 in North 0.7 mph 2.2 mph 97% 0.02 in 0 W/m2
17:46 54.7 °F 54 °F 29.4 in NNW 0.7 mph 2.2 mph 97% 0.02 in 0 W/m2
17:51 54.7 °F 54 °F 29.4 in NNW 0.7 mph 2.2 mph 97% 0.01 in 0 W/m2
17:56 54.7 °F 54 °F 29.4 in Calm   2.2 mph 97% 0.01 in 0 W/m2
18:01 54.5 °F 53.8 °F 29.4 in Calm   1.6 mph 97% 0.01 in 0 W/m2
18:07 54.5 °F 53.8 °F 29.4 in Calm   0.7 mph 97% 0.01 in 0 W/m2
18:12 54.3 °F 53.4 °F 29.4 in Calm   0.7 mph 97% 0.01 in 0 W/m2
18:17 54.3 °F 53.4 °F 29.4 in NNE 0.7 mph 1.6 mph 97% 0.01 in 0 W/m2
18:22 54.3 °F 53.4 °F 29.4 in North 0.7 mph 1.6 mph 97% 0.01 in 0 W/m2
18:27 54.3 °F 53.4 °F 29.4 in Calm   1.6 mph 97% 0.01 in 0 W/m2
18:32 54.3 °F 53.4 °F 29.4 in Calm   0.7 mph 97% 0.01 in 0 W/m2
18:37 54.3 °F 53.4 °F 29.4 in Calm   0.7 mph 97% 0.01 in 0 W/m2
18:42 54.3 °F 53.4 °F 29.4 in Calm   0.7 mph 97% 0.01 in 0 W/m2
18:47 54.3 °F 53.4 °F 29.4 in NNW 0.7 mph 1.6 mph 97% 0.01 in 0 W/m2
18:52 54.3 °F 53.4 °F 29.4 in North 0.7 mph 1.6 mph 97% 0.01 in 0 W/m2
18:57 54.3 °F 53.4 °F 29.4 in Calm   1.6 mph 97% 0 in 0 W/m2
19:15 54.3 °F 53.4 °F 29.4 in North 0.7 mph 2.2 mph 97% 0 in 0 W/m2
19:20 54.3 °F 53.4 °F 29.4 in NNW 0.7 mph 2.2 mph 97% 0 in 0 W/m2
19:25 54.3 °F 53.4 °F 29.4 in Calm   2.2 mph 97% 0 in 0 W/m2
19:30 54.3 °F 53.4 °F 29.4 in North 0.7 mph 1.6 mph 97% 0 in 0 W/m2
19:35 54.3 °F 53.4 °F 29.4 in Calm   1.6 mph 97% 0 in 0 W/m2
19:40 54.1 °F 53.2 °F 29.4 in Calm   1.6 mph 97% 0 in 0 W/m2
19:45 54.1 °F 53.2 °F 29.4 in Calm   0.7 mph 97% 0 in 0 W/m2
19:50 54 °F 53.1 °F 29.4 in Calm   1.6 mph 97% 0 in 0 W/m2
19:55 54 °F 53.1 °F 29.4 in North 0.7 mph 1.6 mph 97% 0 in 0 W/m2
20:00 53.8 °F 53.1 °F 29.4 in North 0.7 mph 1.6 mph 97% 0 in 0 W/m2
20:05 53.8 °F 53.1 °F 29.4 in North 0.7 mph 1.6 mph 97% 0 in 0 W/m2
20:10 53.6 °F 52.9 °F 29.4 in NNW 0.7 mph 2.2 mph 97% 0 in 0 W/m2
20:15 53.6 °F 52.9 °F 29.4 in NNW 0.7 mph 2.2 mph 97% 0 in 0 W/m2
20:20 53.6 °F 52.9 °F 29.4 in NNW 0.7 mph 2.2 mph 97% 0 in 0 W/m2
20:25 53.4 °F 52.9 °F 29.4 in NNW 1.6 mph 2.2 mph 98% 0 in 0 W/m2
20:30 53.2 °F 52.7 °F 29.4 in NW 1.6 mph 3.1 mph 98% 0 in 0 W/m2
20:35 53.2 °F 52.7 °F 29.4 in NW 2.2 mph 3.1 mph 98% 0 in 0 W/m2
20:40 53.2 °F 52.7 °F 29.4 in NNW 1.6 mph 3.1 mph 98% 0 in 0 W/m2
20:45 53.1 °F 52.5 °F 29.4 in NNW 0.7 mph 3.1 mph 98% 0 in 0 W/m2
20:50 53.1 °F 52.5 °F 29.4 in North 1.6 mph 3.1 mph 98% 0 in 0 W/m2
20:55 53.1 °F 52.5 °F 29.4 in North 1.6 mph 2.2 mph 98% 0 in 0 W/m2
21:00 53.1 °F 52.5 °F 29.4 in NNW 2.2 mph 3.8 mph 98% 0 in 0 W/m2
21:05 53.1 °F 52.5 °F 29.4 in NW 2.2 mph 3.8 mph 98% 0 in 0 W/m2
21:10 53.1 °F 52.5 °F 29.4 in NW 2.2 mph 3.8 mph 98% 0 in 0 W/m2
21:15 53.1 °F 52.5 °F 29.4 in NW 1.6 mph 3.1 mph 98% 0 in 0 W/m2
21:20 53.1 °F 52.5 °F 29.4 in NNW 2.2 mph 3.8 mph 98% 0 in 0 W/m2
21:25 53.2 °F 52.7 °F 29.4 in NNW 1.6 mph 3.8 mph 98% 0 in 0 W/m2
21:30 53.1 °F 52.5 °F 29.4 in NNW 1.6 mph 3.8 mph 98% 0 in 0 W/m2
21:35 53.1 °F 52.5 °F 29.4 in North 0.7 mph 2.2 mph 98% 0 in 0 W/m2
21:40 52.9 °F 52.3 °F 29.4 in North 1.6 mph 3.1 mph 98% 0 in 0 W/m2
21:46 52.9 °F 52.3 °F 29.4 in Calm   3.1 mph 98% 0 in 0 W/m2
21:51 52.9 °F 52.3 °F 29.4 in North 0.7 mph 2.2 mph 98% 0 in 0 W/m2
21:56 52.9 °F 52.3 °F 29.4 in North 0.7 mph 2.2 mph 98% 0 in 0 W/m2
22:01 52.7 °F 52.2 °F 29.5 in Calm   2.2 mph 98% 0 in 0 W/m2
22:06 52.5 °F 52 °F 29.4 in North 0.7 mph 2.2 mph 98% 0 in 0 W/m2
22:11 52.5 °F 52 °F 29.5 in North 0.7 mph 2.2 mph 98% 0 in 0 W/m2
22:16 52.5 °F 52 °F 29.5 in North 0.7 mph 2.2 mph 98% 0 in 0 W/m2
22:21 52.3 °F 51.8 °F 29.5 in NNW 1.6 mph 2.2 mph 98% 0 in 0 W/m2
22:26 52.3 °F 51.8 °F 29.5 in NNW 0.7 mph 2.2 mph 98% 0 in 0 W/m2
22:43 52.3 °F 51.8 °F 29.5 in NNW 1.6 mph 3.1 mph 98% 0 in 0 W/m2
22:48 52.5 °F 52 °F 29.5 in NNW 0.7 mph 3.1 mph 98% 0 in 0 W/m2
22:53 52.5 °F 52 °F 29.5 in North 1.6 mph 3.1 mph 98% 0 in 0 W/m2
22:58 52.3 °F 51.8 °F 29.5 in North 0.7 mph 3.1 mph 98% 0 in 0 W/m2
23:03 52.3 °F 51.8 °F 29.5 in North 0.7 mph 3.1 mph 98% 0 in 0 W/m2
23:08 52.2 °F 51.6 °F 29.5 in North 0.7 mph 2.2 mph 98% 0 in 0 W/m2
23:13 52.2 °F 51.6 °F 29.5 in NNW 1.6 mph 2.2 mph 98% 0 in 0 W/m2
23:18 52 °F 51.4 °F 29.5 in NNW 1.6 mph 3.1 mph 98% 0 in 0 W/m2
23:23 51.8 °F 51.3 °F 29.5 in NNW 1.6 mph 3.1 mph 98% 0 in 0 W/m2
23:28 51.6 °F 51.4 °F 29.5 in NNW 1.6 mph 3.1 mph 99% 0 in 0 W/m2
23:33 51.6 °F 51.4 °F 29.5 in NNW 2.2 mph 4.5 mph 99% 0 in 0 W/m2
23:38 51.4 °F 51.3 °F 29.5 in NNW 2.2 mph 4.5 mph 99% 0 in 0 W/m2
23:43 51.4 °F 51.3 °F 29.5 in NW 0.7 mph 3.1 mph 99% 0 in 0 W/m2
23:50 51.6 °F 51.4 °F 29.5 in NNW 2.2 mph 3.8 mph 99% 0 in 0 W/m2
23:55 51.8 °F 51.3 °F 29.5 in North 2.2 mph 4.5 mph 98% 0 in 0 W/m2
Northern Hawkes Bay. New Zealand Historic Data
Compliments of Weather Underground - 2 mb